Location: San Martino di Castrozza
(46.2667°N, 11.8000°E)
Time: 06:27:31
(UTC+00:00)

CZ-4C R/B - Pass Details

Date: 23 April 2021
Orbit: 612 x 1390 km, 63.4° (Epoch: 07 May)

Event Time Altitude Azimuth Distance (km) Brightness Sun altitude
Rises 02:09:39 0° 315° (NW) 3,927 5.7 -18.8°
Reaches altitude 10° 02:12:25 10° 306° (NW) 3,074 5.0 -18.5°
Maximum altitude 02:19:02 35° 245° (WSW) 1,966 3.6 -17.7°
Drops below altitude 10° 02:26:23 10° 185° (S) 3,419 4.9 -16.7°
Sets 02:29:39 0° 177° (S) 4,421 5.6 -16.3°
